Location: Bottens
(46.6171°N, 6.6605°E)
Time: 20:35:38
(UTC+00:00)

Cosmos 1437 Rocket - Pass Details

Date: 20 June 2021
Orbit: 500 x 567 km, 81.2° (Epoch: 23 July)

Event Time Altitude Azimuth Distance (km) Brightness Sun altitude
Rises 01:15:07 0° 340° (NNW) 2,674 7.1 -16.4°
Reaches altitude 10° 01:17:26 10° 331° (NNW) 1,768 5.9 -16.2°
Maximum altitude 01:20:55 32° 267° (W) 898 3.6 -16.0°
Enters shadow 01:21:52 28° 237° (WSW) 985 3.6 -15.9°
